LFRDLFRC

Guest
Details From LFRD - Dinard Pleurtuit-St Malo
To LFRC - Cherbourg Maupertus
Flight Number -
Tags generated
Created
Modified
Stats Distance 68 nm / 126 km
Max Altitude 8,400 ft / 2,560 m
Waypoints 3
Social Downloads 0
Likes 0
Share VATSIM

Download

Looking for another format? Having issues loading an existing format? Contact us
Advertisement - Login to hide

Notes

Basic altitude profile: - Ascent Rate: 2500ft/min - Ascent Speed: 250kts - Cruise Altitude: 35000ft - Cruise Speed: 420kts - Descent Rate: 1500ft/min - Descent Speed: 250kts Options: - Use NATs: no - Use PACOTS: no - Use low airways: yes - Use high airways: no

Route

LFRD ORVAL LFRC

ID Type Via Altitude Latitude Longitude Leg Dist Tot Dist Heading (true) Name
O LFRD APT - 0 ft / 0 m 48.58798˚ -2.07992˚ - 0 nm - Dinard Pleurtuit-St Malo
ORVAL FIX - 8,400 ft / 2,560 m 49.03389˚ -1.82528˚ 28 nm 28 nm 21° / 21° -
O LFRC APT - 0 ft / 0 m 49.65015˚ -1.47026˚ 39 nm 68 nm 20° / 21° Cherbourg Maupertus

Altitude Profile

Advertisement - Login to hide

LFRD

Details ICAO LFRD (DNR)
Name Dinard Pleurtuit-St Malo
Region France
Timezone Europe/Paris (UTC+2.0)
Stats Elevation 216 ft / 66 m (AMSL)
Location 48.587983° -2.079916°
Runways 2
Magnetic Variation 0.842° W

METAR

LFRD 221630Z AUTO 15006KT 110V190 CAVOK 30/15 Q1013 NOSIG

Decode

TAF

TAF LFRD 221100Z 2212/2312 11010KT CAVOK BECMG 2216/2218 12005KT BECMG 2222/2224 30010KT BKN012 PROB30 TEMPO 2300/2303 30015G25KT TEMPO 2300/2306 5000 DZ BKN005 BECMG 2306/2309 SCT020

Decode

Departure Runways

ID Width Length Bearing (true) Bearing (mag) Surface Threshold Offset Overrun Length
12 148 ft / 45 m 4,909 ft / 1,496 m 115.13° 115.97° Asphalt 0 ft / 0 m 0 ft / 0 m
17 148 ft / 45 m 7,199 ft / 2,194 m 170.09° 170.93° Asphalt 0 ft / 0 m 0 ft / 0 m
30 148 ft / 45 m 4,909 ft / 1,496 m 295.14° 295.98° Asphalt 669 ft / 204 m 0 ft / 0 m
35 148 ft / 45 m 7,199 ft / 2,194 m 350.10° 350.94° Asphalt 0 ft / 0 m 0 ft / 0 m

LFRC

Details ICAO LFRC (CER)
Name Cherbourg Maupertus
Region France
Timezone Europe/Paris (UTC+2.0)
Stats Elevation 459 ft / 140 m (AMSL)
Location 49.650151° -1.470264°
Runways 1
Magnetic Variation 0.751° W

METAR

LFRC 221630Z AUTO 07011KT CAVOK 20/17 Q1015 NOSIG

Decode

TAF

Not found

Destination Runways

ID Width Length Bearing (true) Bearing (mag) Surface Threshold Offset Overrun Length
10 148 ft / 45 m 7,985 ft / 2,434 m 100.78° 101.53° Asphalt 0 ft / 0 m 0 ft / 0 m
28 148 ft / 45 m 7,985 ft / 2,434 m 280.80° 281.55° Asphalt 0 ft / 0 m 0 ft / 0 m

Approach Navaids

Runway Type Ident Frequency Range Bearing (true) Bearing (mag) Slope Elevation
28 Localiser MP 110.55 MHz 18 nm / 33 km 280.78° 281.53° - 459 ft / 140 m (AMSL)
28 Glidescope MP 110.55 MHz 10 nm / 19 km 280.79° 281.54° 3.00° 482 ft / 147 m (AMSL)
28 DME MP 110.55 MHz 18 nm / 33 km - - - 459 ft / 140 m (AMSL)

Popular Alternatives